Temperature
16 17 18 18 18 18 18 17 17 17 17 17 18 18 18 18 18 18 18 17 17 17 17 17 16 16 15 15 15 15 15 15 15 15 15 15 16 16 16 16 16 16 16
17 17 17 17 17 17 17 17 16 17 17 17 17 17 17 17 18 18 18 18 17 17 17 17 17 16 15 15 15 15 15 15 15 15 15 15 15 16 16 15 15 16 16
16 16 16 16 16 16 16 16 16 16 16 17 17 17 17 17 18 18 18 18 17 17 17 17 17 16 16 15 15 15 15 15 15 15 14 14 15 15 15 15 15 16 16
16 16 16 16 16 17 17 17 17 17 17 17 17 16 16 17 17 17 17 17 17 17 17 17 17 16 16 16 16 15 15 15 15 14 14 14 14 14 15 15 15 15 16
15 16 16 16 16 16 17 17 17 16 16 16 16 16 15 15 15 15 16 16 17 17 17 17 17 16 16 16 16 16 16 15 15 15 14 14 14 14 14 14 15 15 16
15 16 16 16 16 16 16 16 16 16 16 15 15 15 15 15 15 15 15 15 15 16 16 16 17 16 16 16 16 16 16 16 15 15 15 14 14 14 13 13 14 15 16
15 16 16 16 16 16 16 16 16 16 15 15 15 14 14 14 14 14 14 14 14 14 14 15 15 16 16 16 15 15 16 16 16 16 15 15 14 14 13 13 13 13 15
15 16 16 16 15 15 15 15 15 15 15 14 14 14 14 14 14 14 14 14 14 14 14 13 13 13 14 15 15 15 15 15 16 16 15 15 15 14 14 13 13 12 13
15 15 15 15 15 15 14 14 14 14 14 14 14 14 14 13 13 13 13 13 13 13 13 13 13 12 12 13 13 14 14 14 15 15 15 15 15 14 14 13 13 12 12
15 15 15 14 14 14 14 14 14 14 14 14 14 14 13 13 13 13 13 12 12 12 12 12 12 12 12 12 12 12 13 13 13 14 14 14 14 14 14 14 13 13 12
15 14 14 14 13 13 13 13 13 13 13 13 13 13 13 13 13 13 13 13 12 12 12 12 12 11 12 11 12 11 11 11 12 13 13 14 14 14 14 13 13 13 13
14 14 13 13 13 13 13 13 13 13 13 13 13 12 12 12 12 12 12 12 12 12 12 12 11 11 11 11 11 11 11 11 11 12 12 13 13 13 13 13 13 13 13
14 13 13 13 12 12 12 12 12 12 12 12 12 12 12 12 12 12 12 12 12 12 12 12 11 11 11 11 11 11 11 11 11 11 11 12 12 13 13 13 13 13 13
13 13 12 12 12 11 11 11 11 11 11 11 11 11 11 11 11 11 11 11 11 12 12 11 11 11 11 11 11 10 10 10 10 11 11 11 11 12 13 13 13 13 13
13 12 12 11 11 10 10 9 9 9 9 9 9 9 10 10 10 10 10 11 11 11 11 11 11 11 11 11 11 10 10 10 10 10 10 10 11 11 12 12 13 13 13
12 11 11 10 10 9 8 8 7 7 7 7 7 7 7 8 8 9 9 10 10 10 11 11 11 11 11 11 10 10 10 10 10 10 10 10 10 11 11 12 13 13 13
11 10 10 9 8 7 7 6 6 5 5 5 5 5 6 6 6 7 7 8 9 9 10 10 11 11 10 10 10 10 10 10 10 10 10 10 10 11 11 12 12 13 13
10 9 8 8 7 6 5 5 4 4 4 4 4 4 4 4 4 5 5 6 6 7 8 9 10 10 10 10 10 10 10 10 10 10 10 10 10 10 11 12 12 13 13
9 8 7 6 6 5 4 4 4 4 4 4 4 4 4 4 3 3 4 4 5 6 7 8 9 9 9 9 9 9 9 10 10 10 10 10 10 10 10 11 11 12 12
8 7 6 6 5 4 4 4 4 4 3 3 4 4 3 3 3 3 3 3 4 4 5 6 7 8 8 8 9 9 9 9 10 10 10 10 10 10 10 10 11 11 12
7 7 6 5 5 4 4 4 4 4 4 4 4 4 3 3 3 3 3 3 3 4 4 5 6 6 7 7 8 8 8 9 9 9 10 10 10 9 10 10 10 11 12
7 7 6 6 5 4 4 4 4 4 4 4 4 4 3 3 3 3 3 3 3 3 4 4 5 5 6 6 7 7 7 8 8 9 9 9 9 9 10 10 10 10 10
7 6 6 6 6 5 5 4 5 4 4 4 4 4 3 3 3 3 3 3 3 3 4 4 4 5 5 6 6 6 7 7 8 8 9 9 9 9 9 10 10 10 10
7 6 6 6 6 6 5 5 5 5 4 4 4 4 3 3 3 3 3 3 3 3 3 4 4 4 5 5 5 6 6 7 7 8 8 8 8 8 9 9 9 10 10
7 7 6 6 6 6 6 6 5 5 5 4 4 4 4 4 4 3 3 3 4 4 4 4 4 4 4 5 5 6 6 7 7 8 8 8 8 8 8 9 9 9 10
7 7 7 6 6 6 6 6 6 6 5 5 4 4 4 4 4 4 4 4 4 4 4 4 4 4 4 5 5 6 6 7 7 7 8 8 8 8 8 8 8 9 9
Wind_Speed
8 10 11 11 11 11 10 9 8 8 6 5 4 4 3 5 5 5 6 8 8 9 7 6 6 5 5 5 5 3 3 2 1 1 2 3 4 6 6 6 5 6 6
12 13 12 12 10 9 9 8 8 8 7 5 3 3 4 4 5 5 4 5 7 8 7 8 7 7 5 5 5 4 3 2 2 2 1 2 3 2 2 2 2 3 2
9 9 8 8 7 7 7 6 6 6 6 6 4 4 3 4 4 5 5 4 5 6 6 8 8 8 8 7 7 6 6 4 3 2 3 3 3 2 2 1 2 2 2
5 5 5 5 5 5 5 6 6 5 6 6 4 4 4 4 4 5 6 8 5 4 4 5 7 8 8 8 8 7 5 5 4 3 3 3 2 2 2 2 2 3 4
5 6 6 6 6 6 6 5 5 5 4 4 3 2 2 2 3 4 5 7 7 6 5 4 4 6 7 9 9 9 8 6 5 4 3 2 2 2 2 3 3 4 4
7 8 8 8 8 7 7 6 5 5 4 3 2 2 2 2 2 3 4 4 4 4 7 7 5 4 5 8 9 10 11 9 7 5 5 4 3 3 3 4 3 4 4
7 8 9 9 9 10 9 8 7 7 7 6 6 6 6 5 4 4 3 3 3 3 4 4 5 5 5 6 7 9 10 10 9 8 6 6 5 4 4 3 3 3 3
7 9 10 10 10 11 10 10 9 10 9 8 9 8 8 5 5 6 5 4 4 4 4 4 3 4 6 5 6 8 9 9 10 10 8 6 6 6 5 4 3 3 2
8 9 9 9 9 10 11 11 11 11 11 10 10 9 9 8 8 8 6 6 6 5 5 4 4 4 3 5 5 5 7 8 9 10 9 7 6 6 6 6 5 3 3
9 10 9 9 9 9 10 10 10 11 12 11 10 9 9 9 9 8 9 8 8 7 6 6 5 5 4 3 4 5 5 7 8 7 8 8 6 6 6 6 6 6 5
10 10 8 8 10 10 10 10 11 11 11 12 12 11 12 11 9 9 11 11 10 9 8 7 6 6 5 5 5 5 6 7 7 7 8 10 8 7 6 6 6 7 7
10 9 10 10 10 11 12 11 11 11 12 12 12 12 12 12 11 11 13 12 12 11 10 8 7 7 7 6 7 7 6 6 6 6 8 10 8 9 7 7 7 7 8
10 10 10 10 11 12 13 13 13 13 13 12 12 12 12 13 13 13 13 12 12 12 10 9 10 9 9 8 8 7 7 8 7 6 7 8 8 9 8 8 8 7 7
11 11 11 11 12 12 12 13 14 14 13 12 12 12 13 14 13 13 12 12 12 12 11 11 11 10 9 9 9 8 8 8 8 8 7 7 8 9 8 8 9 8 7
12 12 11 11 11 11 11 11 12 12 12 12 13 14 14 13 13 12 12 12 11 12 12 11 11 10 9 10 10 9 9 8 8 8 8 8 10 10 9 8 8 9 8
12 13 13 13 13 12 11 11 10 10 10 11 13 13 13 13 12 12 12 11 11 11 11 12 12 11 10 13 15 11 8 8 7 7 7 7 9 11 13 14 13 12 11
14 14 14 14 14 13 12 12 10 11 12 12 13 13 12 13 12 13 12 12 11 10 11 12 12 12 13 14 14 14 9 8 8 8 7 6 7 9 9 10 13 15 16
11 12 13 13 12 11 12 12 13 14 15 15 15 14 13 14 13 13 13 12 10 9 9 10 11 10 11 14 14 12 9 8 8 9 9 8 9 8 9 8 8 9 11
11 13 14 15 11 12 12 13 14 15 16 16 16 16 15 15 14 14 14 12 10 9 8 7 8 9 9 11 12 8 5 6 8 9 9 9 9 11 11 9 9 9 8
11 13 13 13 12 12 12 14 15 16 16 16 16 16 15 15 15 14 14 12 11 10 8 7 6 6 7 9 10 7 4 5 6 7 8 11 11 11 11 10 11 11 9
14 13 13 12 12 12 12 14 15 15 16 16 17 16 15 14 14 13 13 12 11 10 9 7 6 6 8 9 11 9 5 6 7 7 7 7 10 12 12 13 11 11 10
12 12 12 13 12 11 12 15 16 16 16 16 16 15 14 13 12 11 11 10 9 9 8 7 7 7 7 9 10 12 12 10 8 8 7 7 9 10 11 11 11 14 13
12 12 13 14 13 10 11 15 17 17 17 16 15 14 13 11 10 10 10 8 6 6 6 6 7 7 6 8 12 13 14 14 10 8 9 8 8 7 7 10 13 15 11
12 12 13 14 14 13 13 14 16 16 16 15 14 12 11 10 9 8 6 6 5 5 5 6 7 7 6 6 7 7 8 9 10 8 7 8 6 5 4 6 10 11 11
11 11 13 14 14 14 15 15 15 15 15 13 12 11 10 9 8 7 6 6 6 6 6 6 6 6 7 8 10 7 7 7 9 9 6 5 4 4 3 4 7 8 10
12 13 13 14 14 14 15 15 14 14 14 12 10 9 8 8 7 7 7 7 8 9 11 12 9 7 9 9 9 10 11 11 13 9 7 7 6 6 5 5 6 7 9
Wind_Direction
8 19 21 21 20 17 11 5 1 354 353 349 346 340 318 306 298 273 248 235 220 204 191 191 188 182 190 198 188 178 192 207 171 175 287 290 271 263 259 258 261 269 276
13 14 16 17 16 11 8 8 8 1 355 342 313 287 287 290 286 291 289 258 232 212 201 196 193 188 188 188 186 176 177 197 175 172 196 295 319 296 261 256 257 271 293
6 0 3 2 357 358 356 355 356 352 346 342 334 333 331 322 336 339 334 321 285 251 222 207 197 190 186 191 193 185 178 189 202 200 178 192 236 294 311 281 275 282 296
344 336 334 331 327 323 326 329 332 337 344 356 14 23 10 345 337 331 329 335 333 302 268 238 214 199 192 191 192 191 184 168 188 211 220 215 192 201 305 316 311 302 292
295 292 292 293 295 292 290 290 299 313 327 353 18 39 30 304 299 319 340 352 354 357 351 316 257 224 207 200 189 185 190 184 179 185 186 203 213 205 213 278 311 313 287
265 274 281 285 285 280 271 264 263 268 268 269 252 210 222 255 293 320 337 342 342 352 3 357 338 285 244 218 203 192 190 192 187 187 184 179 181 190 196 236 280 298 290
246 262 270 272 272 276 274 270 267 269 263 261 258 248 243 248 261 274 284 300 313 315 328 345 343 329 294 255 225 204 195 192 191 194 196 197 202 185 180 212 260 284 294
255 262 267 270 274 278 279 278 274 273 268 258 258 256 253 251 255 256 254 261 261 268 276 284 294 310 318 300 247 224 210 197 196 198 197 200 212 201 191 192 207 271 279
292 291 295 297 293 290 286 282 280 279 275 265 259 259 253 247 250 253 251 251 249 255 260 268 274 275 286 304 297 249 229 212 206 203 202 205 214 208 208 202 199 220 266
315 310 309 307 302 294 287 285 276 272 276 278 272 268 259 251 248 251 253 250 250 245 253 259 260 261 250 236 270 284 260 234 225 213 208 212 217 214 210 206 205 210 225
305 299 294 291 293 294 290 283 278 274 274 273 273 274 274 268 252 245 249 250 249 243 238 238 242 251 250 232 220 235 274 259 243 227 221 225 218 216 216 210 205 208 213
297 287 279 284 291 293 292 287 278 271 265 264 264 265 268 271 266 257 252 247 245 245 236 227 228 238 243 234 226 225 230 251 259 251 236 237 229 224 223 218 215 211 209
299 287 283 288 292 293 293 292 287 280 275 271 266 265 266 265 265 264 259 250 243 242 236 224 224 231 236 237 234 230 228 231 238 242 245 246 233 231 227 222 221 215 207
291 288 286 287 287 287 287 288 289 289 290 288 283 277 273 269 267 267 264 257 246 238 234 227 226 229 231 234 236 231 233 234 235 228 226 238 238 235 233 227 223 211 204
292 291 291 291 290 290 290 291 292 296 298 297 293 288 283 280 278 275 270 264 252 244 235 229 229 230 228 232 229 226 227 229 236 231 222 224 234 238 239 232 222 206 204
300 303 303 303 303 304 307 309 305 306 306 303 298 294 290 288 283 281 279 273 264 252 238 230 227 225 226 230 225 218 218 218 225 235 235 234 241 245 244 240 226 207 203
305 305 306 306 309 313 315 312 306 309 307 304 302 299 297 295 293 293 290 283 275 262 246 237 227 222 225 227 230 226 220 221 222 226 233 248 251 249 255 251 234 218 208
300 304 305 306 307 307 309 308 312 313 312 309 306 305 304 302 300 297 291 284 279 270 255 242 229 221 224 221 226 228 223 228 233 229 226 233 253 260 258 254 235 219 212
302 303 303 305 304 307 310 314 316 314 311 308 305 303 299 296 294 291 288 285 279 270 259 248 228 218 225 220 223 220 207 230 244 241 231 227 243 258 253 242 224 211 210
301 302 304 303 306 311 315 317 316 313 309 306 301 297 292 289 288 285 283 279 274 268 261 250 230 221 231 231 228 216 198 232 250 251 239 229 235 253 250 232 216 206 197
300 303 306 309 311 315 317 316 314 311 307 304 300 295 289 285 283 280 278 275 270 264 256 247 239 231 235 242 241 228 204 223 243 250 244 234 230 246 246 227 218 204 180
305 308 312 314 314 317 320 317 314 310 308 306 304 300 293 288 288 283 282 275 268 256 245 239 242 240 237 237 241 235 227 220 231 241 240 233 229 245 246 228 211 181 169
306 312 315 316 317 320 320 317 314 313 313 313 313 310 305 296 288 285 285 278 263 250 236 232 240 245 238 236 234 235 236 230 226 233 226 218 224 244 243 221 194 174 172
311 315 317 318 320 323 322 316 315 315 316 320 323 322 319 314 303 294 286 277 266 254 240 232 233 238 239 239 236 233 235 230 220 217 203 198 214 227 214 188 187 185 178
312 315 315 316 318 322 320 319 319 321 323 325 329 331 329 324 317 309 294 278 262 252 248 242 230 230 239 238 225 217 215 206 197 180 174 181 188 201 192 183 187 185 173
312 316 316 316 317 319 317 318 322 325 326 328 331 331 331 331 326 322 317 289 270 269 254 246 239 235 239 249 242 224 210 194 175 170 180 189 194 195 184 184 185 178 169
Height
1510 1509 1508 1508 1507 1507 1506 1506 1505 1504 1502 1501 1501 1500 1500 1500 1501 1503 1503 1504 1504 1504 1504 1504 1504 1505 1505 1505 1506 1506 1506 1507 1507 1507 1507 1506 1506 1506 1506 1507 1508 1509 1509
1512 1512 1512 1512 1511 1510 1509 1508 1507 1505 1503 1502 1501 1500 1499 1499 1499 1500 1500 1501 1501 1502 1501 1501 1501 1502 1502 1502 1503 1503 1503 1503 1503 1503 1503 1502 1502 1501 1502 1502 1504 1505 1505
1518 1517 1516 1515 1514 1513 1511 1510 1508 1507 1505 1503 1501 1500 1498 1497 1496 1496 1496 1497 1498 1498 1499 1498 1498 1498 1499 1499 1499 1500 1499 1499 1499 1500 1500 1499 1498 1499 1499 1499 1501 1502 1503
1522 1522 1520 1518 1517 1515 1514 1512 1509 1507 1504 1502 1499 1498 1496 1494 1493 1492 1491 1491 1492 1493 1493 1494 1494 1495 1495 1495 1495 1496 1496 1495 1495 1496 1496 1497 1496 1497 1496 1497 1498 1499 1499
1525 1524 1522 1520 1519 1517 1514 1512 1509 1507 1504 1500 1498 1496 1494 1492 1491 1489 1488 1487 1486 1486 1487 1488 1489 1489 1490 1491 1491 1491 1492 1492 1492 1492 1492 1493 1493 1494 1493 1493 1495 1496 1496
1526 1525 1523 1521 1519 1517 1514 1511 1508 1505 1502 1499 1496 1494 1492 1490 1488 1486 1484 1482 1481 1480 1480 1481 1481 1482 1484 1486 1487 1487 1488 1488 1488 1488 1488 1489 1490 1490 1491 1491 1490 1490 1491
1527 1525 1523 1520 1518 1515 1512 1509 1505 1502 1499 1496 1493 1491 1489 1486 1484 1482 1480 1478 1477 1476 1474 1474 1474 1475 1476 1478 1480 1482 1482 1483 1483 1484 1484 1485 1486 1487 1487 1488 1487 1487 1487
1526 1524 1521 1519 1515 1512 1508 1505 1501 1498 1495 1492 1489 1487 1484 1482 1480 1478 1476 1474 1473 1472 1471 1469 1468 1468 1468 1469 1471 1474 1476 1477 1478 1479 1479 1481 1482 1483 1483 1484 1485 1485 1485
1525 1522 1519 1515 1511 1507 1503 1500 1496 1493 1490 1487 1484 1481 1479 1477 1475 1473 1471 1470 1468 1467 1466 1465 1464 1462 1462 1461 1462 1464 1467 1470 1471 1473 1474 1476 1478 1479 1479 1480 1481 1483 1483
1521 1518 1514 1511 1507 1504 1499 1495 1491 1488 1485 1482 1478 1475 1473 1470 1468 1466 1465 1464 1463 1462 1461 1460 1459 1458 1457 1456 1455 1455 1457 1460 1463 1466 1468 1470 1473 1474 1475 1476 1477 1479 1480
1518 1514 1511 1508 1504 1500 1496 1492 1487 1483 1479 1476 1472 1469 1466 1464 1461 1458 1457 1457 1456 1456 1455 1454 1453 1453 1452 1451 1450 1450 1448 1450 1454 1457 1460 1464 1467 1469 1471 1472 1473 1474 1476
1514 1510 1507 1503 1499 1495 1490 1486 1481 1477 1473 1469 1465 1462 1459 1456 1453 1450 1448 1447 1447 1447 1447 1447 1447 1446 1446 1446 1445 1444 1444 1444 1445 1449 1452 1456 1460 1463 1465 1467 1468 1470 1471
1509 1506 1502 1498 1493 1489 1484 1479 1474 1469 1465 1461 1457 1453 1450 1447 1444 1441 1439 1437 1436 1437 1438 1438 1439 1439 1440 1440 1439 1439 1438 1439 1440 1442 1445 1449 1453 1456 1459 1461 1463 1465 1466
1504 1500 1496 1492 1487 1482 1477 1471 1466 1462 1457 1452 1447 1443 1440 1438 1435 1432 1429 1427 1426 1426 1427 1429 1430 1431 1432 1433 1433 1433 1432 1432 1434 1436 1439 1442 1446 1449 1452 1455 1457 1459 1461
1498 1494 1489 1484 1479 1474 1468 1463 1457 1452 1447 1442 1437 1433 1430 1426 1424 1422 1420 1418 1417 1416 1417 1419 1421 1423 1424 1426 1427 1428 1428 1428 1428 1431 1433 1436 1439 1442 1445 1448 1450 1453 1455
1492 1488 1483 1477 1471 1465 1459 1453 1448 1443 1438 1433 1428 1423 1419 1415 1412 1410 1409 1408 1406 1406 1407 1409 1412 1414 1417 1419 1421 1422 1423 1424 1424 1426 1429 1431 1434 1435 1438 1441 1443 1446 1448
1488 1483 1477 1471 1464 1458 1452 1446 1440 1434 1429 1424 1419 1414 1410 1405 1402 1399 1398 1397 1396 1396 1396 1398 1402 1405 1409 1412 1414 1416 1418 1419 1421 1422 1424 1426 1428 1430 1432 1434 1436 1438 1441
1483 1477 1471 1465 1459 1453 1446 1440 1433 1427 1421 1416 1410 1405 1401 1396 1392 1389 1387 1386 1386 1386 1387 1388 1392 1396 1400 1404 1407 1409 1411 1414 1416 1418 1419 1421 1422 1424 1425 1426 1428 1431 1434
1480 1473 1466 1459 1453 1447 1441 1434 1428 1422 1415 1409 1404 1398 1393 1388 1384 1380 1378 1377 1377 1377 1378 1380 1383 1387 1392 1397 1400 1403 1405 1407 1409 1411 1413 1415 1416 1417 1419 1419 1421 1424 1427
1475 1468 1460 1454 1447 1442 1435 1429 1422 1416 1410 1403 1397 1391 1386 1381 1377 1373 1370 1368 1368 1368 1370 1372 1375 1379 1384 1389 1393 1396 1398 1400 1403 1405 1407 1409 1410 1412 1412 1413 1415 1417 1421
1469 1462 1455 1448 1442 1436 1430 1424 1417 1411 1404 1397 1390 1384 1378 1373 1369 1366 1363 1361 1360 1360 1362 1365 1368 1372 1377 1381 1385 1389 1391 1394 1396 1398 1400 1403 1405 1406 1406 1407 1409 1412 1417
1463 1457 1450 1443 1437 1431 1425 1419 1413 1406 1399 1392 1385 1378 1372 1367 1363 1359 1356 1354 1353 1353 1355 1358 1361 1365 1369 1373 1377 1381 1384 1387 1389 1391 1394 1396 1399 1400 1400 1401 1403 1407 1412
1459 1453 1446 1439 1433 1427 1422 1415 1409 1402 1395 1387 1380 1373 1367 1362 1358 1355 1352 1350 1349 1349 1350 1352 1355 1358 1362 1366 1370 1373 1376 1379 1381 1384 1388 1390 1392 1394 1394 1395 1398 1402 1407
1455 1449 1442 1436 1429 1423 1418 1412 1406 1399 1392 1384 1377 1370 1365 1360 1356 1352 1350 1348 1347 1346 1347 1348 1350 1353 1356 1359 1362 1365 1368 1371 1374 1378 1382 1385 1387 1388 1389 1390 1393 1397 1402
1452 1445 1439 1432 1426 1420 1414 1409 1403 1396 1389 1383 1376 1369 1364 1359 1355 1351 1348 1346 1345 1344 1344 1345 1346 1348 1350 1353 1356 1358 1361 1365 1369 1373 1377 1379 1382 1383 1384 1385 1389 1393 1398
1448 1442 1437 1430 1423 1417 1411 1406 1400 1394 1388 1381 1375 1369 1364 1360 1356 1352 1348 1346 1344 1343 1342 1342 1343 1344 1346 1348 1351 1353 1357 1360 1365 1369 1372 1375 1377 1379 1380 1382 1385 1389 1395